STARLINK-32698, 62312

Orbit data source: Space-Track

STARLINK-32698, 62312 is a payload satellite owned by SpaceX/Seattle (US) in LEO that was launched on Fri, 13 Dec 2024 UTC via an FALCON 9 launch vehicle from the Air Force Western Test Range (AFWTR). Payload-class satellites include a variety of spacecraft equipped with specific instruments for various scientific and technological missions. These include communications satellites like Starlink; space stations such as the ISS; scientific satellites like the Hubble; Earth observation satellites from companies like Planet Labs, Umbra, and HawkEye 360; GPS; miniature CubeSats for education and research; and military/defense satellites.

Loading next visibility...
Identifier
62312, 2024-239M
Orbit
LEO
Country
Flag of USUS
Related business
Manufacturer
SpaceX/Seattle
Mission
Operational Commercial Communications
Bus & Motor
STARLINK V2M, Unknown motor
Mass
730 kg wet, ~700 kg dry
Launch date (UTC)
2024-12-13 (2 years ago)
Launch vehicle
FALCON 9
Launch site
Air Force Western Test Range (AFWTR)
Object type
Payload
Rocket body
Debris
Shape & HBR
Box + 2 Pan, 17.7 m
Radar Cross Section
33.884 m², Large (>1 m²)

Expand to show TLE details & history
Last TLE update: 1 day ago

TLE from 1 day ago
0 STARLINK-32698
1 62312U 24239M   26170.96574550  .00025058  00000-0  75002-3 0  9998
2 62312  53.1582  78.0913 0001036  71.4891 288.6224 15.34411526 85050
Epoch: 2026-06-19T23:10Z
TLE epoch observation values (Epoch: 2026-06-19T23:10:40.411Z)
Latitude
-0.00001°
Longitude
-177.76424°
Altitude
463.344 km
Speed
7.636 km/s
True Right ascension
05h 12m 21s
True Declination
0° 00' 00"
Sunlit
Object was in daylight at epoch
Visualization orbit readout
Latitude
Unknown
Longitude
Unknown
Altitude
Unknown
Speed
Unknown
Apparent Right ascension
Unknown
Apparent Declination
Unknown
Sunlit
N/A
Visualization observer readout
Local Sidereal Time
10:18:41
Azimuth
Unknown
Elevation
Unknown
Doppler factor
Unknown
Orbital elements
Apogee altitude
463.635 km
Perigee altitude
462.217 km
Semi-major axis
6,841.063 km
Eccentricity
0.0001
Inclination
53.1582°
RAAN
78.0913°
Arg. of periapsis
71.4891°
True anomaly
288.61115°
Mean anomaly
288.6224°
Eccentric anomaly
288.61677°
Mean motion
3.83582 °/min
Orbital period
93.85 mins
BSTAR
0.00075002
Loading maneuver chart data...
Computing Atmospheric mass density...
Loading historical data...
Loading historical data...
Loading historical data...
Loading historical data...
Loading historical data...
Loading historical data...
Loading historical data...

Documentation

Showing up to 5 results
|